CW2157 Weather Reports


time (UTC)temp
C
wind
direction
speed
KPH
gust
KPH
rain 1hr
cm
rain 24hr
cm
rain mn
cm
humidity
%
barometer
mb
20260509212205 23 188 12.9 24.1 0.00 0.00 0.00 54 1006.8
20260509211705 23 186 14.5 22.5 0.00 0.00 0.00 53 1006.7
20260509211205 23 185 14.5 20.9 0.00 0.00 0.00 53 1006.6
20260509210705 23 211 11.3 24.1 0.00 0.00 0.00 56 1006.8
20260509210205 23 218 11.3 19.3 0.00 0.00 0.00 57 1006.8
20260509205705 23 182 12.9 25.7 0.00 0.00 0.00 58 1006.9
20260509205205 23 190 14.5 22.5 0.00 0.00 0.00 56 1006.9
20260509204705 23 201 11.3 14.5 0.00 0.00 0.00 56 1006.9
20260509204205 23 210 11.3 16.1 0.00 0.00 0.00 58 1006.8
20260509203705 23 193 11.3 20.9 0.00 0.00 0.00 58 1006.9
20260509203205 23 225 12.9 20.9 0.00 0.00 0.00 57 1006.9
20260509202705 22 207 11.3 19.3 0.00 0.00 0.00 58 1007.0
20260509201705 22 150 12.9 22.5 0.00 0.00 0.00 60 1007.0
20260509201205 22 179 11.3 22.5 0.00 0.00 0.00 60 1007.0
20260509200704 22 151 11.3 19.3 0.00 0.00 0.00 60 1007.1
20260509200205 22 166 9.7 20.9 0.00 0.00 0.00 63 1007.2
20260509195705 21 204 11.3 20.9 0.00 0.00 0.00 64 1007.3
20260509195206 21 175 11.3 19.3 0.00 0.00 0.00 64 1007.3
20260509194705 21 176 8.0 14.5 0.00 0.00 0.00 63 1007.3
20260509194205 21 153 11.3 22.5 0.00 0.00 0.00 63 1007.4
20260509193705 21 167 9.7 19.3 0.00 0.00 0.00 65 1007.5
20260509193205 21 180 8.0 16.1 0.00 0.00 0.00 63 1007.6
20260509192705 21 195 9.7 16.1 0.00 0.00 0.00 63 1007.6
20260509192205 21 168 8.0 12.9 0.00 0.00 0.00 63 1007.7
20260509191705 21 183 8.0 16.1 0.00 0.00 0.00 61 1008.0
20260509191205 21 210 9.7 16.1 0.00 0.00 0.00 62 1008.2
20260509190705 21 193 8.0 12.9 0.00 0.00 0.00 61 1008.2
20260509190205 21 187 9.7 22.5 0.00 0.00 0.00 61 1008.3
20260509185705 21 242 11.3 22.5 0.00 0.00 0.00 61 1008.4
20260509185205 21 214 12.9 19.3 0.00 0.00 0.00 62 1008.3
20260509184705 21 199 19.3 25.7 0.00 0.00 0.00 60 1008.3
20260509184205 21 190 16.1 22.5 0.00 0.00 0.00 62 1008.3
20260509183705 21 208 11.3 20.9 0.00 0.00 0.00 62 1008.4
20260509182705 21 195 14.5 22.5 0.00 0.00 0.00 62 1008.5
20260509182205 21 214 17.7 25.7 0.00 0.00 0.00 62 1008.5
20260509181705 21 184 12.9 22.5 0.00 0.00 0.00 62 1008.6
20260509181205 21 199 19.3 27.4 0.00 0.00 0.00 63 1008.8
20260509180705 21 227 16.1 24.1 0.00 0.00 0.00 64 1008.8
20260509180205 21 204 16.1 24.1 0.00 0.00 0.00 63 1008.9
20260509175705 21 194 14.5 19.3 0.00 0.00 0.00 63 1009.0
20260509175205 21 220 14.5 24.1 0.00 0.00 0.00 62 1008.9
20260509174705 21 198 14.5 19.3 0.00 0.00 0.00 61 1009.0
20260509174205 21 181 14.5 24.1 0.00 0.00 0.00 61 1009.0
20260509173705 21 198 12.9 25.7 0.00 0.00 0.00 62 1008.9
20260509173205 21 205 17.7 32.2 0.00 0.00 0.00 62 1009.0
20260509172204 21 224 19.3 27.4 0.00 0.00 0.00 60 1008.9
20260509171705 21 205 19.3 27.4 0.00 0.00 0.00 60 1009.0
20260509171205 21 222 19.3 27.4 0.00 0.00 0.00 60 1009.0
20260509170705 21 213 19.3 32.2 0.00 0.00 0.00 60 1009.0
20260509170204 21 203 20.9 32.2 0.00 0.00 0.00 60 1008.9
20260509165705 21 212 19.3 24.1 0.00 0.00 0.00 60 1009.0
20260509165205 21 229 19.3 29.0 0.00 0.00 0.00 60 1009.1
20260509164705 21 217 20.9 29.0 0.00 0.00 0.00 60 1009.3
20260509164205 22 214 17.7 33.8 0.00 0.00 0.00 59 1009.0
20260509163704 22 206 20.9 37.0 0.00 0.00 0.00 59 1009.0
20260509163205 22 197 25.7 41.8 0.00 0.00 0.00 59 1008.9
20260509162705 22 189 19.3 29.0 0.00 0.00 0.00 61 1008.9
20260509162205 22 216 24.1 38.6 0.00 0.00 0.00 60 1009.1
20260509161205 22 203 24.1 35.4 0.00 0.00 0.00 60 1009.5
20260509160705 21 199 25.7 35.4 0.00 0.00 0.00 58 1009.4
20260509160205 21 197 25.7 37.0 0.00 0.00 0.00 62 1009.5
20260509155705 21 210 27.4 32.2 0.00 0.00 0.00 62 1009.5
20260509154705 21 212 19.3 32.2 0.00 0.00 0.00 62 1009.3
20260509154205 20 214 20.9 32.2 0.00 0.00 0.00 62 1009.3
20260509153705 20 197 16.1 27.4 0.00 0.00 0.00 62 1009.4
20260509153205 20 167 16.1 22.5 0.00 0.00 0.00 63 1009.6
20260509152705 20 8 17.7 29.0 0.00 0.00 0.00 64 1009.7
20260509152205 20 58 20.9 32.2 0.00 0.00 0.00 62 1009.7
20260509151705 20 121 19.3 27.4 0.00 0.00 0.00 63 1009.7
20260509151204 20 220 22.5 32.2 0.00 0.00 0.00 63 1009.9
20260509150705 20 226 19.3 32.2 0.00 0.00 0.00 62 1010.0
20260509150205 20 208 25.7 32.2 0.00 0.00 0.00 63 1010.2
20260509145205 20 219 22.5 32.2 0.00 0.00 0.00 64 1010.4
20260509144705 19 191 20.9 29.0 0.00 0.00 0.00 65 1010.4
20260509144205 19 212 20.9 32.2 0.00 0.00 0.00 65 1010.3
20260509143205 19 230 19.3 29.0 0.00 0.00 0.00 66 1010.3
20260509142705 18 193 16.1 25.7 0.00 0.00 0.00 68 1010.4
20260509141205 18 211 19.3 27.4 0.00 0.00 0.00 68 1010.6
20260509140705 18 200 20.9 29.0 0.00 0.00 0.00 69 1010.5
20260509140205 18 194 17.7 25.7 0.00 0.00 0.00 69 1010.5
20260509135705 18 188 19.3 32.2 0.00 0.00 0.00 69 1010.5
20260509135205 18 195 17.7 25.7 0.00 0.00 0.00 69 1010.6
20260509134205 18 209 16.1 29.0 0.00 0.00 0.00 69 1010.6
20260509133705 18 192 16.1 27.4 0.00 0.00 0.00 70 1010.5
20260509133205 18 198 19.3 32.2 0.00 0.00 0.00 69 1010.6
20260509132705 18 183 16.1 27.4 0.00 0.00 0.00 70 1010.6
20260509132205 18 204 20.9 32.2 0.00 0.00 0.00 70 1010.8
20260509131705 18 255 20.9 32.2 0.00 0.00 0.00 71 1010.7
20260509131205 18 213 16.1 32.2 0.00 0.00 0.00 70 1010.6
20260509130705 18 212 22.5 32.2 0.00 0.00 0.00 70 1010.7
20260509130205 18 179 20.9 32.2 0.00 0.00 0.00 71 1010.7
20260509125204 18 216 20.9 27.4 0.00 0.00 0.00 71 1010.7
20260509124705 18 201 20.9 40.2 0.00 0.00 0.00 70 1010.7
20260509124205 17 172 22.5 35.4 0.00 0.00 0.00 71 1010.7
20260509123705 17 215 19.3 27.4 0.00 0.00 0.00 71 1010.7
20260509123205 17 199 20.9 29.0 0.00 0.00 0.00 72 1010.7
20260509122705 17 209 20.9 32.2 0.00 0.00 0.00 74 1010.7
20260509121205 16 203 24.1 33.8 0.00 0.00 0.00 75 1010.8
20260509120705 16 208 20.9 32.2 0.00 0.00 0.00 75 1010.8
20260509120205 16 214 22.5 32.2 0.00 0.00 0.00 76 1010.8
20260509115705 16 207 20.9 32.2 0.00 0.00 0.00 76 1010.7
20260509115205 16 42 16.1 32.2 0.00 0.00 0.00 75 1010.7
20260509114705 16 208 19.3 32.2 0.00 0.00 0.00 76 1010.8
20260509113705 16 205 20.9 29.0 0.00 0.00 0.00 77 1010.7
20260509113204 16 214 20.9 27.4 0.00 0.00 0.00 77 1010.7
20260509112704 15 190 19.3 35.4 0.00 0.00 0.00 78 1010.7
20260509111705 15 194 20.9 35.4 0.00 0.00 0.00 78 1010.7
20260509111205 15 213 20.9 35.4 0.00 0.00 0.00 78 1010.8
20260509110705 15 156 22.5 32.2 0.00 0.00 0.00 79 1010.8
20260509110205 15 294 24.1 35.4 0.00 0.00 0.00 79 1010.7
20260509105705 15 176 19.3 35.4 0.00 0.00 0.00 79 1010.8
20260509105205 15 189 19.3 32.2 0.00 0.00 0.00 79 1010.8
20260509104705 15 206 20.9 32.2 0.00 0.00 0.00 79 1010.8
20260509104205 15 208 20.9 32.2 0.00 0.00 0.00 80 1010.7
20260509103705 15 166 20.9 38.6 0.00 0.00 0.00 79 1010.6
20260509103206 15 193 19.3 32.2 0.00 0.00 0.00 79 1010.5
20260509102704 15 108 20.9 32.2 0.00 0.00 0.00 79 1010.6
20260509102205 15 178 19.3 32.2 0.00 0.00 0.00 79 1010.7
20260509101704 15 176 20.9 35.4 0.00 0.00 0.00 78 1010.7
20260509101205 15 173 14.5 32.2 0.00 0.00 0.00 78 1010.5
20260509100704 15 175 19.3 32.2 0.00 0.00 0.00 78 1010.5
20260509095705 15 196 17.7 32.2 0.00 0.00 0.00 78 1010.5
20260509095205 15 181 14.5 29.0 0.00 0.00 0.00 78 1010.5
20260509094705 15 212 16.1 25.7 0.00 0.00 0.00 77 1010.5
20260509094204 15 274 16.1 25.7 0.00 0.00 0.00 77 1010.4
20260509093705 15 177 17.7 24.1 0.00 0.00 0.00 77 1010.3
20260509092705 15 168 14.5 27.4 0.00 0.00 0.00 77 1010.5
20260509092205 15 173 14.5 24.1 0.00 0.00 0.00 77 1010.5
20260509091705 15 194 14.5 22.5 0.00 0.00 0.00 76 1010.5
20260509091205 15 192 16.1 32.2 0.00 0.00 0.00 77 1010.5
20260509090705 15 228 17.7 25.7 0.00 0.00 0.00 77 1010.4
20260509090205 15 281 19.3 27.4 0.00 0.00 0.00 77 1010.4
20260509085705 15 15 19.3 27.4 0.00 0.00 0.00 76 1010.4
20260509085205 15 336 16.1 27.4 0.00 0.00 0.00 77 1010.4
20260509084705 15 176 16.1 27.4 0.00 0.00 0.00 77 1010.5
20260509084205 15 191 16.1 27.4 0.00 0.00 0.00 76 1010.5
20260509083705 15 214 16.1 20.9 0.00 0.00 0.00 76 1010.6
20260509083205 15 177 14.5 22.5 0.00 0.00 0.00 76 1010.5
20260509082704 16 214 14.5 24.1 0.00 0.00 0.00 76 1010.6
20260509081204 16 190 17.7 27.4 0.00 0.00 0.00 76 1010.6
20260509080704 16 199 19.3 27.4 0.00 0.00 0.00 76 1010.7
20260509080205 16 201 16.1 29.0 0.00 0.00 0.00 75 1010.8
20260509075705 16 186 14.5 32.2 0.00 0.00 0.00 75 1010.8
20260509075204 16 178 19.3 32.2 0.00 0.00 0.00 76 1010.8
20260509074705 16 180 12.9 22.5 0.00 0.00 0.00 76 1010.7
20260509074204 16 192 16.1 22.5 0.00 0.00 0.00 75 1010.6
20260509073704 15 192 14.5 32.2 0.00 0.00 0.00 75 1010.8
20260509072704 15 15 16.1 25.7 0.00 0.00 0.00 75 1010.8
20260509072204 15 174 19.3 25.7 0.00 0.00 0.00 76 1010.9
20260509071705 15 157 19.3 29.0 0.00 0.00 0.00 76 1011.0
20260509071205 15 172 16.1 24.1 0.00 0.00 0.00 76 1011.0
20260509070205 15 215 14.5 25.7 0.00 0.00 0.00 76 1011.0
20260509065705 15 204 16.1 29.0 0.00 0.00 0.00 76 1011.0
20260509065205 15 191 17.7 25.7 0.00 0.00 0.00 76 1011.1
20260509064205 15 199 19.3 29.0 0.00 0.00 0.00 76 1011.1
20260509063705 15 180 24.1 33.8 0.00 0.00 0.00 75 1011.1
20260509063205 15 183 19.3 29.0 0.00 0.00 0.00 75 1011.2
20260509062705 15 182 19.3 32.2 0.00 0.00 0.00 75 1011.2
20260509062205 15 270 19.3 32.2 0.00 0.00 0.00 75 1011.3
20260509061705 15 238 22.5 32.2 0.00 0.00 0.00 76 1011.3
20260509061204 15 205 17.7 27.4 0.00 0.00 0.00 76 1011.2
20260509060704 15 204 17.7 29.0 0.00 0.00 0.00 76 1011.2
20260509060204 15 204 16.1 25.7 0.00 0.00 0.00 76 1011.3
20260509055704 15 198 19.3 32.2 0.00 0.00 0.00 75 1011.4
20260509055204 15 198 17.7 27.4 0.00 0.00 0.00 75 1011.3
20260509054704 15 223 19.3 29.0 0.00 0.00 0.00 75 1011.3
20260509053705 15 294 19.3 27.4 0.00 0.00 0.00 76 1011.4
20260509053204 15 172 17.7 32.2 0.00 0.00 0.00 76 1011.5
20260509052705 15 188 19.3 29.0 0.00 0.00 0.00 76 1011.4
20260509052205 15 215 16.1 25.7 0.00 0.00 0.00 77 1011.4
20260509051705 15 192 17.7 35.4 0.00 0.00 0.00 76 1011.4
20260509050705 15 196 14.5 29.0 0.00 0.00 0.00 76 1011.4
20260509050205 15 194 17.7 33.8 0.00 0.00 0.00 76 1011.5
20260509045705 15 227 19.3 29.0 0.00 0.00 0.00 75 1011.4
20260509045205 15 220 16.1 29.0 0.00 0.00 0.00 75 1011.5
20260509044705 15 185 16.1 29.0 0.00 0.00 0.00 75 1011.4
20260509044205 15 191 17.7 35.4 0.00 0.00 0.00 74 1011.5
20260509042704 15 246 17.7 32.2 0.00 0.00 0.00 73 1011.5
20260509042205 15 212 20.9 32.2 0.00 0.00 0.00 73 1011.5
20260509041704 15 199 17.7 32.2 0.00 0.00 0.00 74 1011.5
20260509041204 15 188 17.7 22.5 0.00 0.00 0.00 74 1011.6
20260509040704 15 181 19.3 27.4 0.00 0.00 0.00 75 1011.7
20260509035705 15 190 16.1 32.2 0.00 0.00 0.00 75 1011.8
20260509035205 15 177 16.1 27.4 0.00 0.00 0.00 74 1011.9
20260509034204 15 202 14.5 27.4 0.00 0.00 0.00 74 1011.8
20260509033705 15 191 16.1 24.1 0.00 0.00 0.00 74 1011.7
20260509033205 15 210 16.1 27.4 0.00 0.00 0.00 74 1011.7
20260509032205 15 178 17.7 27.4 0.00 0.00 0.00 73 1011.8
20260509031705 15 194 19.3 27.4 0.00 0.00 0.00 73 1012.0
20260509031204 15 184 14.5 25.7 0.00 0.00 0.00 72 1012.0
20260509030705 15 190 14.5 25.7 0.00 0.00 0.00 71 1012.0
20260509024705 16 192 17.7 27.4 0.00 0.00 0.00 69 1011.8
20260509023705 16 181 19.3 32.2 0.00 0.00 0.00 69 1011.7
20260509023205 16 190 19.3 29.0 0.00 0.00 0.00 69 1011.8
20260509022704 16 213 19.3 29.0 0.00 0.00 0.00 68 1011.7
20260509022205 16 183 14.5 32.2 0.00 0.00 0.00 68 1011.7
20260509021705 16 181 19.3 29.0 0.00 0.00 0.00 68 1011.7
20260509021204 16 196 16.1 27.4 0.00 0.00 0.00 68 1011.8
20260509020205 16 197 16.1 22.5 0.00 0.00 0.00 67 1011.8
20260509015205 16 206 16.1 25.7 0.00 0.00 0.00 66 1011.8
20260509014205 16 188 17.7 29.0 0.00 0.00 0.00 66 1011.7
20260509013705 16 195 16.1 27.4 0.00 0.00 0.00 66 1011.7
20260509013205 16 193 16.1 22.5 0.00 0.00 0.00 66 1011.7
20260509012205 16 191 17.7 27.4 0.00 0.00 0.00 65 1011.7
20260509011205 16 223 16.1 27.4 0.00 0.00 0.00 65 1011.5
20260509010704 16 196 16.1 27.4 0.00 0.00 0.00 64 1011.5
20260509010204 16 191 17.7 29.0 0.00 0.00 0.00 64 1011.4
20260509005704 16 195 16.1 27.4 0.00 0.00 0.00 63 1011.4
20260509005204 16 193 16.1 32.2 0.00 0.00 0.00 64 1011.3
20260509004704 16 174 16.1 27.4 0.00 0.00 0.00 63 1011.2
20260509004204 16 184 16.1 32.2 0.00 0.00 0.00 62 1011.2
20260509003704 16 186 14.5 29.0 0.00 0.00 0.00 62 1011.2
20260509003204 16 204 20.9 33.8 0.00 0.00 0.00 62 1011.0
20260509002204 16 195 14.5 24.1 0.00 0.00 0.00 61 1011.0
20260509001704 16 184 14.5 24.1 0.00 0.00 0.00 61 1010.9
20260509000704 17 211 11.3 24.1 0.00 0.00 0.00 59 1010.9
20260509000204 17 183 14.5 25.7 0.00 0.00 0.00 59 1010.9
20260508235704 17 192 14.5 27.4 0.00 0.00 0.00 59 1010.8
20260508234704 17 186 14.5 24.1 0.00 0.00 0.00 57 1010.8
20260508234204 17 195 11.3 22.5 0.00 0.00 0.00 58 1010.8
20260508233704 17 189 14.5 29.0 0.00 0.00 0.00 56 1010.7
20260508232705 17 199 19.3 32.2 0.00 0.00 0.00 54 1010.7
20260508232204 17 193 16.1 27.4 0.00 0.00 0.00 54 1010.7
20260508231204 17 198 17.7 27.4 0.00 0.00 0.00 53 1010.7
20260508230704 17 178 20.9 32.2 0.00 0.00 0.00 52 1010.6
20260508230205 17 196 16.1 27.4 0.00 0.00 0.00 54 1010.7
20260508225704 17 200 16.1 25.7 0.00 0.00 0.00 53 1010.6
20260508225204 17 196 20.9 29.0 0.00 0.00 0.00 51 1010.7
20260508224704 17 194 20.9 32.2 0.00 0.00 0.00 52 1010.6
20260508224205 17 188 19.3 32.2 0.00 0.00 0.00 51 1010.6
20260508223704 17 194 19.3 37.0 0.00 0.00 0.00 53 1010.5
20260508223204 17 204 20.9 37.0 0.00 0.00 0.00 52 1010.5
20260508222704 18 183 20.9 38.6 0.00 0.00 0.00 51 1010.5
20260508222204 18 194 22.5 33.8 0.00 0.00 0.00 51 1010.6
20260508221704 18 187 22.5 35.4 0.00 0.00 0.00 51 1010.6
20260508221205 18 203 19.3 32.2 0.00 0.00 0.00 51 1010.5
20260508220704 18 187 20.9 32.2 0.00 0.00 0.00 53 1010.4
20260508220204 18 199 22.5 33.8 0.00 0.00 0.00 51 1010.6
20260508215704 18 206 20.9 29.0 0.00 0.00 0.00 50 1010.4
20260508215204 19 218 20.9 32.2 0.00 0.00 0.00 51 1010.5
20260508214704 19 202 19.3 29.0 0.00 0.00 0.00 49 1010.5
20260508214204 20 205 20.9 32.2 0.00 0.00 0.00 51 1010.4
20260508213704 20 187 19.3 32.2 0.00 0.00 0.00 51 1010.4
20260508213204 20 190 20.9 33.8 0.00 0.00 0.00 49 1010.4
20260508212704 20 189 17.7 27.4 0.00 0.00 0.00 49 1010.4